Regional Weather Roundup
Issued by NWS Upton, NY

Current Version | Previous Version | Text Only | Print | Product List | Glossary On
Versions: 1 2 3 4 5 6 7 8 9 10 11 12 13 14 15 16 17 18 19 20 21 22 23 24 25 26 27 28 29 30 31 32 33 34 35 36 37 38 39 40 41 42 43 44 45 46 47 48 49 50
000
ASUS41 KOKX 061008
RWROKX

REGIONAL WEATHER ROUNDUP
NATIONAL WEATHER SERVICE NEW YORK NY
600 AM EDT WED MAY 06 2015

NOTE: "FAIR" INDICATES FEW OR NO CLOUDS BELOW 12,000 FEET WITH NO
SIGNIFICANT WEATHER AND/OR OBSTRUCTIONS TO VISIBILITY.

NYZ071-072-176-178-NJZ106-104-061100-
NEW YORK CITY METRO AREA


CITY           SKY/WX    TMP DP  RH WIND       PRES   REMARKS
CENTRAL PARK   CLOUDY    68  38  33 VRB7      30.24R
LAGUARDIA APRT CLOUDY    66  39  37 N5        30.20R
KENNEDY INTL   CLOUDY    68  38  33 N6        30.21R
NEWARK/LIBERTY CLOUDY    67  39  35 N8        30.21R
BRNX BOT. GARD   N/A     64  39  39 E2        30.22R
TETERBORO      CLOUDY    67  38  34 N6        30.21R
$$

NYZ177-179-078>081-061100-
LONG ISLAND NEW YORK

CITY           SKY/WX    TMP DP  RH WIND       PRES   REMARKS
FARMINGDALE    CLOUDY    62  50  64 NE6       30.21R
ISLIP          CLOUDY    62  50  64 N10       30.20R
SHIRLEY        CLOUDY    59  50  72 VRB3      30.23R
WESTHAMPTON    CLOUDY    58  51  78 NE5       30.23R
MONTAUK POINT    N/A     55  49  80 VRB5      30.24R
$$

NYZ052-065-067-061100-
HUDSON VALLEY

CITY           SKY/WX    TMP DP  RH WIND       PRES   REMARKS
WHITE PLAINS   LGT RAIN  64  37  36 N8        30.22R
NEWBURGH       CLOUDY    63  43  48 NE12      30.25S
MONTGOMERY     CLOUDY    62  42  47 NE12      30.24R
POUGHKEEPSIE   CLOUDY    62  42  47 N6        30.25R
ALBANY         CLOUDY    56  38  50 CALM      30.28R
$$

NJZ001-105-106-008-010-013-015-019>022-104-061100-
NEW JERSEY

CITY           SKY/WX    TMP DP  RH WIND       PRES   REMARKS
NEWARK/LIBERTY CLOUDY    67  39  35 N8        30.21R
TETERBORO      CLOUDY    67  38  34 N6        30.21R
CALDWELL       CLOUDY    64  45  49 CALM      30.23R
MORRISTOWN     CLOUDY    68  37  32 CALM      30.23R
SOMERVILLE     CLOUDY    62  57  83 CALM      30.21R
SUSSEX         LGT RAIN  60  47  61 N3        30.27R
ANDOVER          N/A     59  51  75 CALM      30.25R
TRENTON        CLOUDY    67  44  43 NE6       30.21R
MILLVILLE      CLEAR     62  60  93 SW5       30.21R
ATLANTIC CITY  PTCLDY    64  62  93 CALM      30.21R FOG
WRIGHTSTOWN    LGT RAIN  64  58  81 NE2       30.19R
TOMS RIVER     CLOUDY    63  57  82 CALM      30.21R
BELMAR         MOCLDY    64  48  55 N6        30.21R
$$

PAZ047>061-062-071-061100-
EASTERN PENNSYLVANIA

CITY           SKY/WX    TMP DP  RH WIND       PRES   REMARKS
PHILADELPHIA   MOCLDY    66  61  84 N6        30.21R
ALLENTOWN      CLOUDY    66  45  46 N6        30.23R
SCRANTON       LGT RAIN  57  53  86 CALM      30.27S
$$

CTZ002-004>006-009-010-012-RIZ004-006-007-MAZ004-011-015-061100-
SOUTHERN NEW ENGLAND
 IN CT

CITY           SKY/WX    TMP DP  RH WIND       PRES   REMARKS
BRADLEY INTL   CLOUDY    57  39  51 N6        30.25R
HARTFORD       CLOUDY    60  36  40 VRB7      30.25R
DANBURY        CLOUDY    63  37  38 NE8       30.25R
WTRBRY/OXFORD    N/A     61  34  36 NE9       30.28R
BRIDGEPORT     CLOUDY    65  45  48 NE10      30.22R
MERIDEN        CLOUDY    62  37  39 N6        30.25R
NEW HAVEN      CLOUDY    62  39  42 N12       30.22R
CHESTER        FAIR      63  43  48 N5        30.24R
GROTON         CLOUDY    61  47  59 N8        30.22R
WILLIMANTIC    CLOUDY    60  38  43 N5        30.25R

 IN RI

CITY           SKY/WX    TMP DP  RH WIND       PRES   REMARKS
PROVIDENCE     NOT AVBL
BLOCK ISLAND   CLOUDY    52  46  82 NE8       30.23R
WESTERLY       CLOUDY    62  44  51 N7        30.23R

 IN MA

CITY           SKY/WX    TMP DP  RH WIND       PRES   REMARKS
BOSTON         CLOUDY    58  39  49 N6        30.26R
WORCESTER      CLOUDY    58  29  33 N8        30.27R
WESTFIELD      CLOUDY    55  39  54 N7        30.26R
PROVINCETOWN   MOCLDY    48  46  93 E8        30.25R
NANTUCKET      MOCLDY    52  48  86 NE10      30.22R
$$

ANZ330-335-338-340-345-350-353-355-061100-
COASTAL MARINE OBSERVATIONS


STATION/POSITION TIME  SKY/WX   TEMP    WIND        PRES    VSBY  WAVE
                                AIR SEA DIR/SP/G                  HT/PER
                 (UTC)          (F)     (DEG/KT/KT) (MB)    (MI)  (FT/S)
NY HARB ENTRANCE 0950            59 53  340/  4/  6 1022.5          3/ 6
4S FIRE IS       0903               51                N/A           3/ 6
20S FIRE ISLAND  0950            53 49   10/ 10/ 10 1022.3          3/ 6
GREAT SOUTH BAY  0900            60 61   10/  4/  4   N/A
23SW MTP         0950            49 49   20/  8/ 10 1023.1          3/ 7
HUDSON CANYON    NOT AVBL
KINGS POINT      0900            65 48   40/  3/  6 1021.9
EASTERN LI SOUND 0900            51      30/  4/  4   N/A
ROBBINS REEF     0900            68      10/ 15/ 17 1021.4
$$


>>>>>>>>>>>>>>>>>>>>>>>>>>>> KEY <<<<<<<<<<<<<<<<<<<<<<<<<<<
>                                                          <
>     SKY/WX - SKY CONDITION/PRESENT WEATHER               <
>     TMP    - TEMPERATURE IN FAHRENHEIT                   <
>     DP     - DEWPOINT IN FAHRENHEIT                      <
>     RH     - RELATIVE HUMIDITY IN PERCENT                <
>     WIND   - DIRECTION AND SPEED IN MPH                  <
>     PRES   - MEAN SEA LEVEL PRESSURE IN INCHES OF HG     <
>     WCI    - WIND CHILL INDEX                            <
>     VSB    - VISIBILITY IN MILES                         <
>     HX     - HEAT INDEX                                  <
>     TC     - TEMPERATURE IN CELSIUS                      <
>     VRB    - VARIABLE WIND DIRECTION                     <
>                                                          <
>>>>>>>>>>>>>>>>>>>>>>>>>>>> KEY <<<<<<<<<<<<<<<<<<<<<<<<<<<





USA.gov is the U.S. government's official web portal to all federal, state and local government web resources and services.